EW6133 Weather Reports


time (UTC)temp
C
wind
direction
speed
KPH
gust
KPH
rain 1hr
cm
rain 24hr
cm
rain mn
cm
humidity
%
barometer
mb
20260504060227 11 59 0.0 3.2 0.00 0.00 0.00 92 1012.3
20260504050723 11 327 0.0 3.2 0.00 0.00 0.00 92 1011.6
20260504050223 11 263 0.0 1.6 0.00 0.00 0.00 92 1011.6
20260504050001 11 263 0.0 1.6 0.00 0.00 0.00 92 1011.5
20260504045222 11 355 0.0 1.6 0.00 0.00 0.00 92 1011.4
20260504044720 11 28 0.0 1.6 0.00 0.00 0.00 92 1011.4
20260504044218 11 19 0.0 1.6 0.00 0.00 0.00 92 1011.4
20260504043714 11 19 0.0 3.2 0.00 0.00 0.00 92 1011.4
20260504043214 11 22 0.0 3.2 0.00 0.00 0.00 91 1011.4
20260504042948 11 355 0.0 3.2 0.00 0.00 0.00 91 1011.4
20260504042212 11 5 0.0 3.2 0.00 0.00 0.00 91 1011.3
20260504041949 11 100 0.0 3.2 0.00 0.00 0.00 91 1011.2
20260504041207 11 93 0.0 3.2 0.00 0.00 0.00 91 1011.3
20260504040707 11 331 0.0 3.2 0.00 0.00 0.00 91 1011.3
20260504040204 11 331 0.0 3.2 0.00 0.00 0.00 91 1011.2
20260504035704 11 262 0.0 1.6 0.00 0.00 0.00 91 1011.2
20260504035227 11 262 0.0 1.6 0.00 0.00 0.00 91 1011.3
20260504035218 11 262 0.0 1.6 0.00 0.00 0.00 91 1011.2
20260504034203 11 262 0.0 4.8 0.00 0.00 0.00 91 1011.2
20260504033701 11 262 0.0 4.8 0.00 0.00 0.00 91 1011.2
20260504033441 11 0 0.0 3.2 0.00 0.00 0.00 91 1011.2
20260504032703 11 5 0.0 3.2 0.00 0.00 0.00 91 1011.2
20260504032207 11 355 0.0 3.2 0.00 0.00 0.00 91 1011.1
20260504031703 11 275 0.0 3.2 0.00 0.00 0.00 91 1011.0
20260504031203 11 53 0.0 3.2 0.00 0.00 0.00 91 1011.0
20260504030704 11 348 0.0 1.6 0.00 0.00 0.00 91 1011.0
20260504030204 11 348 0.0 3.2 0.00 0.00 0.00 91 1011.0
20260504025702 11 348 0.0 3.2 0.00 0.00 0.00 91 1011.0
20260504025202 11 36 0.0 1.6 0.00 0.00 0.00 90 1010.9
20260504024703 11 49 0.0 3.2 0.00 0.00 0.00 90 1010.9
20260504024203 11 48 0.0 3.2 0.00 0.00 0.00 90 1010.9
20260504023702 12 185 0.0 3.2 0.00 0.00 0.00 90 1010.8
20260504023440 12 205 0.0 3.2 0.00 0.00 0.00 90 1010.8
20260504022942 12 5 0.0 1.6 0.00 0.00 0.00 90 1010.8
20260504022159 12 9 0.0 3.2 0.00 0.00 0.00 90 1010.7
20260504021652 12 36 0.0 3.2 0.00 0.00 0.00 90 1010.8
20260504021147 12 98 0.0 3.2 0.00 0.00 0.00 90 1010.9
20260504020642 12 272 0.0 3.2 0.00 0.00 0.00 90 1010.8
20260504020435 12 215 0.0 0.0 0.00 0.00 0.00 90 1010.7
20260504020430 12 342 0.0 1.6 0.00 0.00 0.00 90 1010.8
20260504015136 12 215 0.0 1.6 0.00 0.00 0.00 90 1010.8
20260504014635 12 215 0.0 1.6 0.00 0.00 0.00 90 1010.8
20260504014134 12 215 0.0 1.6 0.00 0.00 0.00 90 1010.8
20260504013635 12 215 0.0 1.6 0.00 0.00 0.00 90 1010.8
20260504013134 12 216 0.0 1.6 0.00 0.00 0.00 90 1010.9
20260504012631 12 215 0.0 3.2 0.00 0.00 0.00 90 1010.9
20260504012131 12 216 0.0 3.2 0.00 0.00 0.00 89 1010.9
20260504011631 12 202 0.0 3.2 0.00 0.00 0.00 90 1010.8
20260504011132 12 202 0.0 1.6 0.00 0.00 0.00 90 1010.8
20260504010631 12 202 0.0 1.6 0.00 0.00 0.00 90 1010.9
20260504010131 12 202 0.0 1.6 0.00 0.00 0.00 90 1010.8
20260504005631 12 202 0.0 1.6 0.00 0.00 0.00 90 1010.8
20260504005131 12 202 0.0 3.2 0.00 0.00 0.00 89 1010.8
20260504004631 12 202 0.0 3.2 0.00 0.00 0.00 89 1010.8
20260504004132 12 200 0.0 1.6 0.00 0.00 0.00 89 1010.8
20260504003632 12 201 0.0 0.0 0.00 0.00 0.00 89 1010.9
20260504003132 12 201 0.0 3.2 0.00 0.00 0.00 89 1010.9
20260504002632 12 201 0.0 3.2 0.00 0.00 0.00 88 1010.9
20260504002134 12 104 0.0 1.6 0.00 0.00 0.00 87 1010.8
20260504001910 13 103 0.0 3.2 0.00 0.00 0.00 87 1010.6
20260504001131 13 104 0.0 3.2 0.00 0.00 0.00 86 1010.6
20260504000634 13 103 0.0 1.6 0.00 0.00 0.00 86 1010.7
20260504000416 13 109 0.0 1.6 0.00 0.00 0.00 86 1010.7
20260503235632 13 243 0.0 4.8 0.00 0.00 0.00 86 1010.7
20260503235405 13 243 0.0 4.8 0.00 0.00 0.00 85 1010.8
20260503234629 13 89 0.0 1.6 0.00 0.00 0.00 84 1010.8
20260503234129 13 88 0.0 1.6 0.00 0.00 0.00 84 1010.8
20260503233628 13 88 0.0 1.6 0.00 0.00 0.00 83 1010.8
20260503233127 13 88 0.0 0.0 0.00 0.00 0.00 83 1010.8
20260503232627 13 88 0.0 0.0 0.00 0.00 0.00 82 1010.8
20260503232127 13 88 0.0 1.6 0.00 0.00 0.00 82 1010.7
20260503231901 13 88 0.0 1.6 0.00 0.00 0.00 82 1010.6
20260503231124 13 76 0.0 0.0 0.00 0.00 0.00 81 1010.5
20260503230625 13 76 0.0 1.6 0.00 0.00 0.00 80 1010.3
20260503230120 14 76 0.0 1.6 0.00 0.00 0.00 80 1010.2
20260503225619 14 75 0.0 1.6 0.00 0.00 0.00 79 1010.1
20260503225116 14 88 0.0 0.0 0.00 0.00 0.00 79 1010.1
20260503224618 14 88 0.0 0.0 0.00 0.00 0.00 79 1010.1
20260503224116 14 85 0.0 0.0 0.00 0.00 0.00 79 1010.0
20260503223638 14 86 0.0 0.0 0.00 0.00 0.00 79 1009.9
20260503223629 14 85 0.0 0.0 0.00 0.00 0.00 79 1009.9
20260503222852 14 85 0.0 0.0 0.00 0.00 0.00 78 1009.9
20260503222114 14 85 0.0 0.0 0.00 0.00 0.00 78 1009.9
20260503221611 14 86 0.0 0.0 0.00 0.00 0.00 78 1009.9
20260503221419 14 86 0.0 0.0 0.00 0.00 0.00 78 1009.8
20260503221126 14 85 0.0 0.0 0.00 0.00 0.00 78 1009.8
20260503220111 14 85 0.0 0.0 0.00 0.00 0.00 78 1009.8
20260503215609 14 86 0.0 0.0 0.00 0.00 0.00 78 1009.8
20260503215109 15 85 0.0 0.0 0.00 0.00 0.00 77 1009.7
20260503214606 15 85 0.0 1.6 0.00 0.00 0.00 77 1009.7
20260503214106 15 85 0.0 1.6 0.00 0.00 0.00 77 1009.7
20260503213605 15 86 0.0 0.0 0.00 0.00 0.00 77 1009.7
20260503213106 15 85 0.0 0.0 0.00 0.00 0.00 77 1009.7
20260503212844 15 85 0.0 1.6 0.00 0.00 0.00 77 1009.8
20260503212343 15 86 0.0 1.6 0.00 0.00 0.00 77 1009.7
20260503211845 15 85 0.0 1.6 0.00 0.00 0.00 77 1009.8
20260503211106 15 86 0.0 1.6 0.00 0.00 0.00 77 1009.7
20260503210841 15 86 0.0 0.0 0.00 0.00 0.00 78 1009.7
20260503210105 15 86 0.0 0.0 0.00 0.00 0.00 78 1009.6
20260503205604 15 86 0.0 0.0 0.00 0.00 0.00 78 1009.6
20260503205347 15 86 0.0 0.0 0.00 0.00 0.00 78 1009.5
20260503204606 15 86 0.0 0.0 0.00 0.00 0.00 77 1009.5
20260503204106 15 86 0.0 0.0 0.00 0.00 0.00 77 1009.4
20260503203606 15 86 0.0 0.0 0.00 0.00 0.00 77 1009.3
20260503203104 15 86 0.0 0.0 0.00 0.00 0.00 77 1009.3
20260503202606 15 86 0.0 0.0 0.00 0.00 0.00 77 1009.2
20260503202123 15 86 0.0 1.6 0.00 0.00 0.00 77 1009.1
20260503202116 15 86 0.0 0.0 0.00 0.00 0.00 77 1009.1
20260503201104 15 86 0.0 1.6 0.00 0.00 0.00 77 1009.0
20260503200844 15 86 0.0 0.0 0.00 0.00 0.00 77 1009.0
20260503200105 15 86 0.0 0.0 0.00 0.00 0.00 76 1009.0
20260503195602 15 86 0.0 0.0 0.00 0.00 0.00 76 1008.9
20260503195104 15 86 0.0 0.0 0.00 0.00 0.00 76 1008.9
20260503194602 15 86 0.0 0.0 0.00 0.00 0.00 76 1008.8
20260503194341 15 86 0.0 0.0 0.00 0.00 0.00 74 1008.8
20260503193603 15 86 0.0 0.0 0.00 0.00 0.00 74 1008.7
20260503193104 15 86 0.0 0.0 0.00 0.00 0.00 74 1008.6
20260503192604 15 86 0.0 0.0 0.00 0.00 0.00 73 1008.6
20260503192102 15 86 0.0 0.0 0.00 0.00 0.00 73 1008.6
20260503191603 15 86 0.0 0.0 0.00 0.00 0.00 72 1008.5
20260503191102 16 86 0.0 0.0 0.00 0.00 0.00 72 1008.5
20260503190603 16 86 0.0 0.0 0.00 0.00 0.00 72 1008.4
20260503190106 16 86 0.0 0.0 0.00 0.00 0.00 71 1008.3
20260503185604 16 86 0.0 0.0 0.00 0.00 0.00 70 1008.3
20260503185341 16 86 0.0 0.0 0.00 0.00 0.00 70 1008.3
20260503184607 16 86 0.0 0.0 0.00 0.00 0.00 69 1008.2
20260503184103 16 86 0.0 0.0 0.00 0.00 0.00 69 1008.2
20260503183604 16 86 0.0 0.0 0.00 0.00 0.00 68 1008.1
20260503183102 16 86 0.0 0.0 0.00 0.00 0.00 68 1008.0
20260503182603 17 86 0.0 0.0 0.00 0.00 0.00 67 1008.0
20260503182340 17 86 0.0 0.0 0.00 0.00 0.00 67 1007.9
20260503181602 17 86 0.0 0.0 0.00 0.00 0.00 67 1007.9
20260503181102 17 86 0.0 1.6 0.00 0.03 0.00 66 1007.9
20260503180604 17 86 0.0 1.6 0.00 0.03 0.00 66 1007.9
20260503180104 17 86 0.0 1.6 0.00 0.03 0.00 65 1007.9
20260503175604 17 86 0.0 3.2 0.00 0.03 0.00 64 1008.0
20260503175103 17 86 0.0 3.2 0.00 0.03 0.00 64 1007.9
20260503174910 17 5 0.0 1.6 0.00 0.03 0.00 65 1007.8
20260503174618 17 5 0.0 1.6 0.00 0.03 0.00 64 1007.8
20260503173603 17 5 0.0 3.2 0.00 0.03 0.00 65 1007.8
20260503173101 17 5 0.0 3.2 0.00 0.03 0.00 64 1007.8
20260503172836 18 328 0.0 1.6 0.00 0.03 0.00 64 1007.8
20260503172049 18 328 0.0 1.6 0.00 0.03 0.00 64 1007.8
20260503171543 18 328 0.0 1.6 0.00 0.03 0.00 64 1007.9
20260503171057 18 328 0.0 1.6 0.00 0.03 0.00 64 1007.9
20260503171049 18 328 0.0 1.6 0.00 0.03 0.00 64 1007.9
20260503151003 19 113 0.0 4.8 0.00 0.03 0.00 60 1008.0
20260503150504 20 70 0.0 4.8 0.00 0.03 0.00 59 1008.0
20260503131004 19 240 1.6 6.4 0.00 0.03 0.00 60 1008.3
20260503130503 19 284 0.0 3.2 0.00 0.03 0.00 60 1008.3
20260503110507 17 77 0.0 3.2 0.00 0.03 0.00 71 1008.6
20260503110241 17 155 0.0 3.2 0.00 0.03 0.00 71 1008.6
20260503100224 15 161 1.6 4.8 0.00 0.03 0.00 77 1008.6
20260503090441 14 248 0.0 4.8 0.00 0.03 0.00 79 1008.7
20260503090215 14 285 0.0 4.8 0.00 0.03 0.00 79 1008.8
20260503081416 13 136 0.0 6.4 0.00 0.03 0.00 83 1008.5
20260503080915 13 79 0.0 3.2 0.00 0.03 0.00 83 1008.5
20260503080415 13 161 0.0 3.2 0.00 0.03 0.00 83 1008.5
20260503072430 13 109 0.0 4.8 0.00 0.03 0.00 86 1008.6
20260503072421 13 107 0.0 4.8 0.00 0.03 0.00 86 1008.6
20260503071404 13 281 0.0 6.4 0.00 0.03 0.00 86 1008.5
20260503070902 13 167 0.0 6.4 0.00 0.03 0.00 87 1008.6
20260503070404 13 162 1.6 6.4 0.00 0.03 0.00 88 1008.5
20260503070141 12 290 1.6 6.4 0.00 0.03 0.00 88 1008.4